• In Czech Republic
  • List of Countries
  • For 7 days
  • Water Temperature
  • Satellite Maps
  • Weather Map
  • Weather Widgets
  • user-avatar
    Login

    Hourly Weather Nkongsamba

    Today, 16 December, Saturday

    Time Temperature Precipitation Wind Pressure Humidity
    00:00 +22°C° 0 mm 1 mps 685 mmHg 81%
    01:00 +22°C° 0 mm 1 mps 685 mmHg 85%
    02:00 +22°C° 0 mm 1 mps 685 mmHg 85%
    03:00 +22°C° 0 mm 1 mps 685 mmHg 86%
    04:00 +21°C° 0 mm 1 mps 684 mmHg 86%
    05:00 +21°C° 0 mm 1 mps 685 mmHg 84%
    06:00 +21°C° 0 mm 1 mps 685 mmHg 83%
    07:00 +22°C° 0 mm 1 mps 685 mmHg 80%
    08:00 +25°C° 0 mm 1 mps 686 mmHg 67%
    09:00 +28°C° 0 mm 1 mps 687 mmHg 55%
    10:00 +31°C° 0 mm 1 mps 687 mmHg 42%
    11:00 +32°C° 0 mm 1 mps 687 mmHg 37%
    12:00 +33°C° 0 mm 1 mps 687 mmHg 33%
    13:00 +34°C° 0 mm 2 mps 687 mmHg 32%
    14:00 +34°C° 0 mm 2 mps 686 mmHg 32%
    15:00 +34°C° 0 mm 2 mps 686 mmHg 32%
    16:00 +34°C° 0 mm 2 mps 685 mmHg 32%
    17:00 +30°C° 0 mm 1 mps 685 mmHg 40%
    18:00 +28°C° 0 mm 1 mps 685 mmHg 49%
    19:00 +26°C° 0 mm 1 mps 685 mmHg 57%
    20:00 +25°C° 0 mm 1 mps 685 mmHg 62%
    21:00 +24°C° 0 mm 1 mps 685 mmHg 67%
    22:00 +21°C° 0 mm 0 mps 686 mmHg 71%
    23:00 +23°C° 0 mm 1 mps 685 mmHg 73%

    Tomorrow, 17 December, Sunday

    Time Temperature Precipitation Wind Pressure Humidity
    00:00 +23°C° 0 mm 1 mps 685 mmHg 75%
    01:00 +22°C° 0 mm 1 mps 685 mmHg 76%
    02:00 +22°C° 0 mm 1 mps 685 mmHg 76%
    03:00 +22°C° 0 mm 1 mps 685 mmHg 76%
    04:00 +21°C° 0 mm 1 mps 684 mmHg 76%
    05:00 +21°C° 0 mm 1 mps 685 mmHg 74%
    06:00 +21°C° 0 mm 1 mps 685 mmHg 72%
    07:00 +21°C° 0 mm 1 mps 685 mmHg 70%
    08:00 +25°C° 0 mm 1 mps 686 mmHg 59%
    09:00 +28°C° 0 mm 1 mps 687 mmHg 47%
    10:00 +31°C° 0 mm 1 mps 688 mmHg 35%
    11:00 +32°C° 0 mm 1 mps 687 mmHg 31%
    12:00 +34°C° 0 mm 1 mps 687 mmHg 28%
    13:00 +35°C° 0 mm 1 mps 687 mmHg 24%
    14:00 +35°C° 0 mm 2 mps 686 mmHg 26%
    15:00 +35°C° 0 mm 2 mps 685 mmHg 27%
    16:00 +34°C° 0 mm 2 mps 685 mmHg 28%
    17:00 +31°C° 0 mm 2 mps 685 mmHg 37%
    18:00 +28°C° 0 mm 1 mps 685 mmHg 46%
    19:00 +26°C° 0 mm 1 mps 684 mmHg 54%
    20:00 +25°C° 0 mm 1 mps 685 mmHg 60%
    21:00 +24°C° 0 mm 1 mps 685 mmHg 66%
    22:00 +21°C° 0 mm 0 mps 686 mmHg 72%
    23:00 +21°C° 0 mm 0 mps 686 mmHg 74%

    Day after tomorrow, 18 December, Monday

    Time Temperature Precipitation Wind Pressure Humidity
    00:00 +22°C° 0 mm 1 mps 686 mmHg 76%
    01:00 +22°C° 0 mm 1 mps 685 mmHg 78%
    02:00 +21°C° 0 mm 1 mps 685 mmHg 77%
    03:00 +21°C° 0 mm 1 mps 685 mmHg 76%
    04:00 +21°C° 0 mm 1 mps 685 mmHg 75%
    05:00 +21°C° 0 mm 1 mps 685 mmHg 72%
    06:00 +21°C° 0 mm 1 mps 685 mmHg 69%
    07:00 +21°C° 0 mm 1 mps 685 mmHg 67%
    08:00 +24°C° 0 mm 1 mps 686 mmHg 57%
    09:00 +28°C° 0 mm 1 mps 687 mmHg 47%
    10:00 +31°C° 0 mm 1 mps 688 mmHg 36%
    11:00 +32°C° 0 mm 1 mps 687 mmHg 33%
    12:00 +33°C° 0 mm 1 mps 687 mmHg 29%
    13:00 +36°C° 0 mm 2 mps 686 mmHg 26%
    14:00 +35°C° 0 mm 2 mps 685 mmHg 27%
    15:00 +35°C° 0 mm 2 mps 685 mmHg 29%
    16:00 +34°C° 0 mm 2 mps 684 mmHg 31%
    17:00 +30°C° 0 mm 2 mps 684 mmHg 41%
    18:00 +28°C° 0 mm 2 mps 684 mmHg 51%
    19:00 +25°C° 0 mm 1 mps 684 mmHg 61%
    20:00 +25°C° 0 mm 1 mps 684 mmHg 68%
    21:00 +24°C° 0 mm 1 mps 685 mmHg 74%
    22:00 +21°C° 0 mm 0 mps 685 mmHg 81%
    23:00 +22°C° 0 mm 1 mps 685 mmHg 83%

    19 December, Tuesday

    Time Temperature Precipitation Wind Pressure Humidity
    00:00 +22°C° 0 mm 1 mps 685 mmHg 85%
    01:00 +22°C° 0 mm 1 mps 684 mmHg 86%
    02:00 +22°C° 0 mm 1 mps 684 mmHg 87%
    03:00 +21°C° 0 mm 1 mps 684 mmHg 88%
    04:00 +21°C° 0 mm 1 mps 684 mmHg 89%
    05:00 +21°C° 0 mm 1 mps 684 mmHg 88%
    06:00 +21°C° 0 mm 1 mps 684 mmHg 87%
    07:00 +21°C° 0 mm 1 mps 685 mmHg 87%
    08:00 +24°C° 0 mm 1 mps 685 mmHg 72%
    09:00 +28°C° 0 mm 1 mps 686 mmHg 58%
    10:00 +31°C° 0 mm 1 mps 687 mmHg 44%
    11:00 +32°C° 0 mm 1 mps 687 mmHg 40%
    12:00 +33°C° 0 mm 1 mps 686 mmHg 35%
    13:00 +35°C° 0 mm 2 mps 686 mmHg 31%
    14:00 +35°C° 0 mm 2 mps 685 mmHg 33%
    15:00 +34°C° 0 mm 2 mps 684 mmHg 35%
    16:00 +32°C° 0 mm 2 mps 684 mmHg 37%
    17:00 +30°C° 0.1 mm 2 mps 684 mmHg 47%
    18:00 +28°C° 0.1 mm 2 mps 684 mmHg 57%
    19:00 +26°C° 0.1 mm 2 mps 684 mmHg 67%
    20:00 +25°C° 0.1 mm 1 mps 684 mmHg 73%
    21:00 +24°C° 0.1 mm 1 mps 685 mmHg 79%
    22:00 +21°C° 0.1 mm 0 mps 685 mmHg 84%
    23:00 +20°C° 0 mm 0 mps 685 mmHg 86%

    20 December, Wednesday

    Time Temperature Precipitation Wind Pressure Humidity
    00:00 +20°C° 0 mm 0 mps 684 mmHg 87%
    01:00 +20°C° 0 mm 0 mps 684 mmHg 88%
    02:00 +19°C° 0 mm 0 mps 684 mmHg 89%
    03:00 +19°C° 0 mm 0 mps 684 mmHg 90%
    04:00 +19°C° 0 mm 0 mps 683 mmHg 90%
    05:00 +19°C° 0 mm 0 mps 684 mmHg 90%
    06:00 +19°C° 0 mm 0 mps 684 mmHg 89%
    07:00 +19°C° 0 mm 0 mps 685 mmHg 89%
    08:00 +22°C° 0 mm 0 mps 685 mmHg 75%
    09:00 +27°C° 0 mm 1 mps 686 mmHg 62%
    10:00 +30°C° 0 mm 1 mps 687 mmHg 49%
    11:00 +31°C° 0 mm 1 mps 687 mmHg 44%
    12:00 +32°C° 0 mm 1 mps 686 mmHg 39%
    13:00 +35°C° 0 mm 2 mps 686 mmHg 34%
    14:00 +34°C° 0 mm 2 mps 685 mmHg 35%
    15:00 +34°C° 0 mm 2 mps 684 mmHg 36%
    16:00 +32°C° 0 mm 2 mps 684 mmHg 37%
    17:00 +30°C° 0.3 mm 2 mps 684 mmHg 49%
    18:00 +27°C° 0.3 mm 2 mps 684 mmHg 61%
    19:00 +25°C° 0.3 mm 1 mps 684 mmHg 73%
    20:00 +24°C° 0.1 mm 1 mps 684 mmHg 78%
    21:00 +23°C° 0.1 mm 1 mps 685 mmHg 82%
    22:00 +21°C° 0.1 mm 0 mps 685 mmHg 87%
    23:00 +22°C° 0 mm 1 mps 685 mmHg 88%

    21 December, Thursday

    Time Temperature Precipitation Wind Pressure Humidity
    00:00 +22°C° 0 mm 1 mps 685 mmHg 89%
    01:00 +22°C° 0 mm 1 mps 685 mmHg 90%
    02:00 +20°C° 0 mm 0 mps 684 mmHg 91%
    03:00 +19°C° 0 mm 0 mps 684 mmHg 92%
    04:00 +19°C° 0 mm 0 mps 684 mmHg 93%
    05:00 +19°C° 0 mm 0 mps 685 mmHg 92%
    06:00 +19°C° 0 mm 0 mps 685 mmHg 91%
    07:00 +19°C° 0 mm 0 mps 685 mmHg 91%
    08:00 +22°C° 0 mm 0 mps 686 mmHg 79%
    09:00 +26°C° 0 mm 1 mps 687 mmHg 66%
    10:00 +29°C° 0 mm 1 mps 688 mmHg 54%
    11:00 +30°C° 0 mm 1 mps 687 mmHg 47%
    12:00 +32°C° 0 mm 1 mps 687 mmHg 41%
    13:00 +34°C° 0 mm 2 mps 686 mmHg 34%
    14:00 +34°C° 0 mm 2 mps 686 mmHg 34%
    15:00 +34°C° 0 mm 2 mps 685 mmHg 34%
    16:00 +34°C° 0 mm 2 mps 684 mmHg 34%
    17:00 +30°C° 0.1 mm 2 mps 684 mmHg 45%
    18:00 +28°C° 0.1 mm 2 mps 684 mmHg 56%
    19:00 +25°C° 0.1 mm 1 mps 684 mmHg 67%
    20:00 +24°C° 0 mm 1 mps 685 mmHg 73%
    21:00 +24°C° 0 mm 1 mps 685 mmHg 78%
    22:00 +23°C° 0 mm 1 mps 686 mmHg 83%
    23:00 +22°C° 0 mm 1 mps 685 mmHg 85%
    Show more